Weather History for St. Joseph, MO

Change the Weather History Date:

Wednesday, December 5, 2012

  Actual Average Record
Temperature  
Mean Temperature 42 °F 33 °F  
Max Temperature 61 °F 43 °F 71 °F (2001)
Min Temperature 23 °F 23 °F -3 °F (1964)
Degree Days  
Heating Degree Days 23 32  
Month to date heating degree days 83 157  
Since 1 July heating degree days 1195 1268  
Cooling Degree Days 0 0  
Month to date cooling degree days 0 0  
Year to date cooling degree days 1565 1221  
Moisture  
Dew Point 26 °F    
Average Humidity 56    
Maximum Humidity 88    
Minimum Humidity 23    
Precipitation  
Precipitation 0.00 in 0.04 in 1.58 in (1982)
Month to date precipitation 0.00 0.22  
Year to date precipitation 22.31 34.30  
Sea Level Pressure  
Sea Level Pressure 30.21 in    
Wind  
Wind Speed 8 mph (SSE)    
Max Wind Speed 26 mph    
Max Gust Speed 33 mph    
Visibility 10 miles    
Events      
T = Trace of Precipitation, MM = Missing Value Source: NWS Daily Summary

Daily Weather History Graph

Daily Weather History Graph

Search for Another Location

Airport:

Trip Planner

Search our weather history database for the weather conditions in past years. The results will help you decide how hot, cold, wet, or windy it might be!

Date:

Astronomy

Dec. 05, 2012 Rise Set
Actual Time 7:25 AM CST 4:54 PM CST
Civil Twilight 6:55 AM CST 5:25 PM CST
Nautical Twilight 6:22 AM CST 5:58 PM CST
Astronomical Twilight 5:49 AM CST 6:31 PM CST
Moon 11:44 PM CST (12/5) 11:50 AM CST (12/5)
Length of Visible Light 10h 29m
Length of Day
9h 28m
Waning Gibbous, 59% of the Moon is Illuminated
Dec 5
Waning Gibbous
Dec 6
Last Quarter
Dec 13
New
Dec 19
First Quarter
Dec 28
Full

Hourly Weather History & Observations

Time (CST) Temp. Windchill Dew Point Humidity Pressure Visibility Wind Dir Wind Speed Gust Speed Precip Events Conditions
12:53 AM 30.0 °F - 21.9 °F 72% 30.33 in 10.0 mi Calm Calm - N/A   Clear
1:53 AM 30.9 °F - 25.0 °F 79% 30.33 in 10.0 mi Calm Calm - N/A   Clear
2:53 AM 26.1 °F 21.9 °F 21.0 °F 81% 30.34 in 10.0 mi NNW 3.5 mph - N/A   Clear
3:53 AM 28.0 °F 24.2 °F 23.0 °F 81% 30.34 in 10.0 mi NNE 3.5 mph - N/A   Clear
4:53 AM 25.0 °F 19.3 °F 19.9 °F 81% 30.34 in 10.0 mi NW 4.6 mph - N/A   Clear
5:53 AM 23.0 °F 18.4 °F 19.0 °F 85% 30.34 in 10.0 mi North 3.5 mph - N/A   Clear
6:53 AM 26.1 °F - 19.9 °F 78% 30.34 in 10.0 mi Calm Calm - N/A   Clear
8:53 AM 37.9 °F 32.7 °F 26.1 °F 62% 30.32 in 10.0 mi SE 6.9 mph - N/A   Clear
9:53 AM 43.0 °F - 28.9 °F 58% 30.33 in 10.0 mi Calm Calm - N/A   Clear
10:53 AM 48.0 °F - 28.9 °F 48% 30.30 in 10.0 mi ESE 5.8 mph - N/A   Clear
11:53 AM 52.0 °F - 28.9 °F 41% 30.27 in 10.0 mi South 8.1 mph - N/A   Clear
12:53 PM 55.0 °F - 30.0 °F 38% 30.23 in 10.0 mi SSE 8.1 mph - N/A   Clear
1:53 PM 61.0 °F - 27.0 °F 27% 30.18 in 10.0 mi South 13.8 mph 20.7 mph N/A   Clear
2:53 PM 60.1 °F - 23.0 °F 24% 30.14 in 10.0 mi South 25.3 mph 33.4 mph N/A   Clear
3:53 PM 57.9 °F - 25.0 °F 28% 30.12 in 10.0 mi South 19.6 mph - N/A   Clear
4:53 PM 53.1 °F - 26.1 °F 35% 30.12 in 10.0 mi SSE 11.5 mph - N/A   Clear
5:53 PM 48.9 °F - 27.0 °F 43% 30.11 in 10.0 mi SSE 9.2 mph - N/A   Clear
6:53 PM 50.0 °F - 28.9 °F 44% 30.08 in 10.0 mi SSE 9.2 mph - N/A   Clear
7:53 PM 48.0 °F - 28.9 °F 48% 30.08 in 10.0 mi South 9.2 mph - N/A   Clear
8:53 PM 46.0 °F 41.4 °F 30.0 °F 54% 30.06 in 10.0 mi SSE 9.2 mph - N/A   Clear
9:53 PM 46.0 °F 41.4 °F 30.0 °F 54% 30.04 in 10.0 mi SSE 9.2 mph - N/A   Clear
10:53 PM 46.0 °F 41.0 °F 30.0 °F 54% 30.02 in 10.0 mi South 10.4 mph - N/A   Clear
11:53 PM 45.0 °F 40.1 °F 28.9 °F 53% 30.01 in 10.0 mi South 9.2 mph - N/A   Clear